FW8385 Weather Reports


Display with metric or nautical units.
time (UTC)temp
F
wind
direction
speed
MPH
gust
MPH
rain 1hr
in
rain 24hr
in
rain mn
in
humidity
%
barometer
mb
20210919050548 59 0 0.0 1.0 0.00 0.03 0.00 92 1022.6
20210919050118 59 0 0.0 1.0 0.00 0.03 0.00 92 1022.6
20210919045558 59 0 0.0 1.0 0.00 0.04 0.00 91 1022.6
20210919045047 60 0 0.0 1.0 0.00 0.04 0.00 91 1022.6
20210919044622 60 0 0.0 1.0 0.00 0.04 0.00 91 1022.6
20210919044052 60 0 0.0 1.0 0.00 0.04 0.00 90 1022.6
20210919043608 60 331 0.0 2.0 0.00 0.04 0.00 91 1022.6
20210919043152 60 350 0.0 2.0 0.00 0.04 0.00 91 1022.6
20210919042548 61 352 0.0 2.0 0.00 0.04 0.00 91 1022.6
20210919042048 61 0 0.0 3.0 0.00 0.04 0.00 90 1022.5
20210919041609 61 24 0.0 3.0 0.00 0.04 0.00 89 1022.5
20210919041133 61 5 0.0 3.0 0.00 0.04 0.00 91 1022.4
20210919040551 61 0 0.0 3.0 0.00 0.04 0.00 91 1022.3
20210919040155 62 329 0.0 7.0 0.00 0.04 0.00 91 1022.2
20210919035556 62 344 1.0 7.0 0.00 0.04 0.04 90 1022.1
20210919035048 62 349 0.0 3.0 0.00 0.04 0.04 90 1022.2
20210919034737 62 0 1.0 3.0 0.00 0.04 0.04 91 1022.2
20210919034048 63 0 0.0 3.0 0.00 0.04 0.04 90 1022.2
20210919033547 63 5 0.0 4.0 0.00 0.04 0.04 90 1022.2
20210919033152 63 0 0.0 4.0 0.00 0.04 0.04 90 1022.3
20210919032548 63 10 0.0 3.0 0.00 0.04 0.04 91 1022.2
20210919032101 63 0 1.0 3.0 0.00 0.04 0.04 90 1022.2
20210919031654 63 0 0.0 3.0 0.00 0.04 0.04 90 1022.2
20210919031111 64 0 0.0 5.0 0.00 0.04 0.04 90 1022.0
20210919030621 64 0 0.0 5.0 0.00 0.04 0.04 91 1022.1
20210919030246 64 5 1.0 5.0 0.00 0.04 0.04 91 1022.0
20210919025604 64 290 0.0 4.0 0.00 0.04 0.04 91 1021.9
20210919025049 64 352 1.0 4.0 0.00 0.04 0.04 91 1021.9
20210919024657 64 352 1.0 4.0 0.00 0.04 0.04 92 1021.9
20210919024054 64 352 1.0 4.0 0.00 0.04 0.04 93 1021.8
20210919023546 64 346 0.0 3.0 0.00 0.04 0.04 94 1021.7
20210919023235 64 0 0.0 3.0 0.00 0.04 0.04 94 1021.7
20210919022548 64 0 0.0 3.0 0.00 0.04 0.04 94 1021.6
20210919022051 64 0 0.0 3.0 0.00 0.04 0.04 94 1021.7
20210919021623 64 318 0.0 2.0 0.00 0.04 0.04 94 1021.7
20210919021046 64 348 0.0 2.0 0.00 0.04 0.04 94 1021.6
20210919020601 64 0 0.0 2.0 0.00 0.04 0.04 94 1021.6
20210919020137 64 0 0.0 2.0 0.00 0.04 0.04 93 1021.6
20210919015549 64 0 0.0 2.0 0.00 0.04 0.04 93 1021.5
20210919015046 64 0 0.0 2.0 0.00 0.04 0.04 93 1021.5
20210919014625 64 0 0.0 2.0 0.00 0.04 0.04 93 1021.4
20210919014114 65 0 0.0 2.0 0.00 0.04 0.04 92 1021.4
20210919013555 65 0 0.0 2.0 0.00 0.04 0.04 92 1021.3
20210919013129 65 0 0.0 2.0 0.00 0.04 0.04 92 1021.3
20210919012606 65 335 0.0 2.0 0.00 0.04 0.04 91 1021.3
20210919012108 65 0 0.0 3.0 0.00 0.04 0.04 91 1021.3
20210919011739 66 5 0.0 3.0 0.00 0.04 0.04 90 1021.3
20210919011048 66 0 0.0 3.0 0.00 0.04 0.04 90 1021.4
20210919010552 66 0 0.0 3.0 0.00 0.04 0.04 90 1021.4
20210919010135 66 322 0.0 4.0 0.00 0.04 0.04 90 1021.2
20210919005548 66 352 0.0 4.0 0.00 0.04 0.04 90 1021.2
20210919005104 66 0 0.0 3.0 0.00 0.04 0.04 90 1021.0
20210919004726 66 331 0.0 2.0 0.00 0.04 0.04 90 1021.0
20210919004109 66 0 0.0 2.0 0.00 0.04 0.04 90 1021.0
20210919003546 66 5 0.0 2.0 0.00 0.04 0.04 90 1020.9
20210919003156 66 0 0.0 2.0 0.00 0.04 0.04 90 1020.9
20210919002548 66 13 0.0 2.0 0.00 0.04 0.04 90 1021.0
20210919002047 66 0 0.0 2.0 0.00 0.04 0.04 90 1020.9
20210919001609 66 0 0.0 2.0 0.00 0.04 0.04 90 1020.9
20210919001048 66 0 0.0 2.0 0.00 0.04 0.04 90 1020.7
20210919000601 66 352 0.0 2.0 0.00 0.04 0.04 90 1020.7
20210919000140 67 0 0.0 2.0 0.00 0.04 0.04 90 1020.7
20210918235546 67 0 0.0 2.0 0.00 0.05 0.04 89 1020.6
20210918235051 67 0 0.0 2.0 0.00 0.05 0.04 88 1020.6
20210918234621 67 0 0.0 2.0 0.00 0.05 0.04 88 1020.6
20210918234047 67 0 0.0 2.0 0.00 0.05 0.04 87 1020.4
20210918233548 67 352 0.0 2.0 0.00 0.05 0.04 87 1020.3
20210918233140 67 0 0.0 2.0 0.00 0.05 0.04 87 1020.1
20210918232607 67 352 0.0 2.0 0.00 0.05 0.04 86 1020.1
20210918232049 68 0 0.0 2.0 0.00 0.05 0.04 86 1020.1
20210918231556 68 351 0.0 2.0 0.00 0.05 0.04 86 1020.1
20210918231048 68 352 0.0 3.0 0.00 0.05 0.04 86 1020.1
20210918230547 68 0 0.0 3.0 0.00 0.05 0.04 86 1020.0
20210918230109 68 0 0.0 2.0 0.00 0.05 0.04 86 1020.0
20210918225547 69 0 0.0 2.0 0.00 0.05 0.04 86 1020.0
20210918225046 69 0 0.0 2.0 0.00 0.05 0.04 85 1020.0
20210918224746 69 0 0.0 2.0 0.00 0.05 0.04 84 1020.0
20210918224047 69 14 0.0 2.0 0.00 0.05 0.04 84 1019.9
20210918223549 70 0 0.0 2.0 0.00 0.05 0.04 83 1020.0
20210918223135 70 0 0.0 2.0 0.00 0.05 0.04 83 1020.0
20210918222556 70 0 0.0 2.0 0.00 0.05 0.04 83 1020.0
20210918222047 70 0 0.0 2.0 0.00 0.05 0.04 83 1020.0
20210918221838 71 26 0.0 2.0 0.00 0.05 0.04 82 1019.9
20210918221053 71 0 0.0 2.0 0.00 0.05 0.04 82 1019.9
20210918220549 71 0 0.0 1.0 0.00 0.05 0.04 84 1019.8
20210918220133 71 0 0.0 1.0 0.00 0.05 0.04 83 1019.7
20210918215546 70 0 0.0 1.0 0.00 0.05 0.04 84 1019.8
20210918215047 71 0 0.0 1.0 0.00 0.05 0.04 83 1019.7
20210918214658 71 0 0.0 1.0 0.00 0.05 0.04 81 1019.7
20210918214048 72 0 0.0 1.0 0.00 0.05 0.04 79 1019.7
20210918213547 72 0 0.0 2.0 0.00 0.05 0.04 80 1019.9
20210918213104 72 34 0.0 2.0 0.00 0.05 0.04 80 1019.8
20210918212547 72 22 0.0 2.0 0.00 0.05 0.04 79 1019.8
20210918212049 72 15 0.0 2.0 0.00 0.05 0.04 78 1019.8
20210918211704 72 5 0.0 2.0 0.00 0.05 0.04 79 1019.7
20210918211100 72 0 0.0 2.0 0.00 0.05 0.04 78 1019.9
20210918210552 73 36 0.0 2.0 0.00 0.05 0.04 78 1019.8
20210918210125 73 0 0.0 2.0 0.00 0.05 0.04 77 1019.9
20210918205603 73 0 0.0 4.0 0.00 0.05 0.04 77 1019.9
20210918205049 74 0 0.0 4.0 0.01 0.05 0.04 76 1019.9
20210918204755 74 320 0.0 2.0 0.01 0.05 0.04 74 1020.0
20210918204048 74 0 0.0 3.0 0.01 0.05 0.04 74 1019.9
20210918203553 74 0 0.0 3.0 0.01 0.05 0.04 73 1019.9
20210918203233 75 352 0.0 2.0 0.01 0.05 0.04 70 1019.9
20210918202550 76 344 0.0 3.0 0.01 0.05 0.04 71 1019.8
20210918202049 76 0 1.0 3.0 0.01 0.05 0.04 68 1019.7
20210918201717 77 0 1.0 3.0 0.01 0.05 0.04 68 1019.8
20210918201048 77 36 0.0 3.0 0.01 0.05 0.04 66 1019.8
20210918200550 77 342 1.0 3.0 0.01 0.05 0.04 68 1019.7
20210918200123 77 168 0.0 4.0 0.01 0.05 0.04 64 1019.7
20210918195549 78 0 0.0 4.0 0.01 0.06 0.04 65 1019.8
20210918195049 79 323 0.0 3.0 0.00 0.05 0.03 65 1019.8
20210918194645 79 0 0.0 4.0 0.00 0.05 0.03 63 1019.9
20210918194048 78 0 1.0 4.0 0.00 0.05 0.03 63 1019.9
20210918193551 77 5 1.0 4.0 0.00 0.05 0.03 64 1019.9
20210918193110 78 352 1.0 3.0 0.00 0.05 0.03 63 1020.0
20210918192551 78 0 1.0 4.0 0.00 0.05 0.03 62 1020.0
20210918192049 78 0 1.0 4.0 0.00 0.05 0.03 60 1020.0
20210918191645 78 314 1.0 4.0 0.00 0.05 0.03 64 1019.9
20210918191116 78 42 0.0 3.0 0.00 0.05 0.03 64 1020.0
20210918190549 78 351 0.0 3.0 0.00 0.05 0.03 66 1020.1
20210918190244 78 0 0.0 3.0 0.00 0.05 0.03 62 1020.2
20210918185547 78 302 0.0 4.0 0.00 0.05 0.03 66 1020.3
20210918185119 78 56 0.0 4.0 0.00 0.05 0.03 67 1020.3
20210918184647 79 352 0.0 3.0 0.00 0.05 0.03 65 1020.4
20210918184133 79 360 0.0 3.0 0.00 0.05 0.03 64 1020.6
20210918183549 79 344 1.0 4.0 0.00 0.05 0.03 64 1020.5
20210918183131 79 35 0.0 4.0 0.00 0.05 0.03 68 1020.6
20210918182549 78 342 1.0 4.0 0.00 0.05 0.03 66 1020.7
20210918182054 78 0 0.0 3.0 0.00 0.05 0.03 66 1020.8
20210918181736 79 292 0.0 3.0 0.00 0.05 0.03 62 1020.8
20210918181046 78 16 0.0 2.0 0.00 0.05 0.03 66 1020.9
20210918180552 79 25 0.0 3.0 0.00 0.05 0.03 63 1020.9
20210918180224 79 340 1.0 3.0 0.00 0.05 0.03 66 1020.9
20210918175606 79 10 0.0 4.0 0.00 0.05 0.03 66 1020.9
20210918175054 79 300 0.0 4.0 0.00 0.05 0.03 67 1020.9
20210918174608 78 360 0.0 3.0 0.00 0.05 0.03 66 1021.0
20210918174046 77 0 0.0 4.0 0.00 0.05 0.03 67 1020.9
20210918173546 77 0 0.0 4.0 0.00 0.05 0.03 66 1021.0
20210918173207 78 0 0.0 3.0 0.00 0.05 0.03 69 1021.1
20210918172547 78 337 1.0 3.0 0.00 0.05 0.03 69 1021.2
20210918172051 76 0 0.0 3.0 0.00 0.05 0.03 74 1021.2
20210918171642 76 13 0.0 3.0 0.00 0.05 0.03 74 1021.4
20210918171047 77 335 0.0 3.0 0.00 0.05 0.03 78 1021.4
20210918170547 76 342 0.0 5.0 0.00 0.05 0.03 73 1021.4
20210918170225 77 331 1.0 5.0 0.00 0.05 0.03 77 1021.5
20210918165549 76 0 0.0 4.0 0.00 0.06 0.03 75 1021.6
20210918165052 74 352 0.0 4.0 0.00 0.06 0.03 79 1021.7
20210918164612 75 0 1.0 3.0 0.00 0.06 0.03 74 1021.7
20210918164046 73 0 0.0 3.0 0.00 0.06 0.03 80 1021.8
20210918163546 75 322 0.0 5.0 0.00 0.06 0.03 77 1021.7
20210918163140 76 0 1.0 5.0 0.00 0.06 0.03 78 1021.6
20210918162557 76 346 0.0 4.0 0.00 0.06 0.03 78 1021.6
20210918162046 74 0 0.0 4.0 0.00 0.06 0.03 78 1021.6
20210918161617 74 0 0.0 4.0 0.00 0.06 0.03 76 1021.6
20210918161047 74 352 0.0 4.0 0.00 0.06 0.03 80 1021.6
20210918160551 75 0 0.0 4.0 0.00 0.06 0.03 81 1021.6
20210918160140 74 48 0.0 3.0 0.00 0.06 0.03 84 1021.7
20210918155545 73 352 0.0 3.0 0.00 0.06 0.03 83 1021.7
20210918155050 72 0 0.0 3.0 0.00 0.06 0.03 83 1021.7
20210918154800 72 0 0.0 2.0 0.00 0.06 0.03 83 1021.7
20210918154052 73 309 0.0 3.0 0.00 0.06 0.03 83 1021.8
20210918153546 73 306 0.0 4.0 0.00 0.06 0.03 83 1021.9
20210918153118 73 352 0.0 4.0 0.00 0.06 0.03 82 1021.9
20210918152547 74 352 0.0 3.0 0.00 0.06 0.03 85 1021.8
20210918152048 73 313 1.0 3.0 0.00 0.06 0.03 83 1021.9
20210918151643 72 5 0.0 3.0 0.00 0.06 0.03 86 1021.9
20210918151046 71 0 0.0 2.0 0.00 0.06 0.03 90 1021.9
20210918150554 71 0 0.0 2.0 0.01 0.06 0.03 87 1022.0
20210918150213 71 0 0.0 3.0 0.01 0.06 0.03 90 1022.0
20210918145547 70 0 0.0 3.0 0.01 0.06 0.03 87 1022.1
20210918145054 70 325 0.0 3.0 0.01 0.06 0.03 88 1022.0
20210918144614 70 311 0.0 2.0 0.01 0.06 0.03 90 1022.0
20210918144054 70 0 0.0 4.0 0.01 0.06 0.03 90 1022.1
20210918143548 70 5 0.0 4.0 0.01 0.06 0.03 90 1022.0
20210918143210 70 334 0.0 2.0 0.01 0.06 0.03 90 1022.1
20210918142556 70 289 0.0 3.0 0.01 0.06 0.03 92 1022.0
20210918142106 70 0 0.0 4.0 0.01 0.06 0.03 93 1022.0
20210918141749 69 0 0.0 4.0 0.01 0.06 0.03 94 1021.9
20210918141056 68 0 0.0 2.0 0.01 0.06 0.03 95 1021.9
20210918140604 68 360 0.0 2.0 0.00 0.05 0.02 96 1022.0
20210918140112 68 0 0.0 2.0 0.00 0.05 0.02 97 1022.0
20210918135546 67 0 0.0 1.0 0.00 0.06 0.02 97 1022.0
20210918135048 67 0 0.0 2.0 0.00 0.06 0.02 97 1022.1
20210918134636 67 0 0.0 2.0 0.00 0.06 0.02 97 1022.0
20210918134106 67 0 0.0 2.0 0.00 0.06 0.02 97 1022.0
20210918133613 67 0 0.0 1.0 0.00 0.06 0.02 98 1021.9
20210918133312 67 0 0.0 1.0 0.00 0.06 0.02 97 1021.7
20210918132548 67 0 0.0 1.0 0.00 0.06 0.02 98 1021.7
20210918132050 66 360 0.0 2.0 0.00 0.06 0.02 99 1021.7
20210918131620 66 93 0.0 2.0 0.00 0.06 0.02 98 1021.7
20210918131046 66 63 0.0 2.0 0.00 0.06 0.02 99 1021.7
20210918130556 66 11 0.0 2.0 0.00 0.06 0.02 99 1021.7
20210918130219 66 0 0.0 2.0 0.00 0.06 0.02 99 1021.7
20210918125546 65 300 0.0 2.0 0.00 0.06 0.02 99 1021.6
20210918125052 65 0 0.0 2.0 0.00 0.06 0.02 99 1021.6
20210918124635 65 0 0.0 2.0 0.00 0.06 0.02 99 1021.7
20210918124054 65 0 0.0 2.0 0.00 0.06 0.02 99 1021.8
20210918123552 65 0 0.0 2.0 0.00 0.06 0.02 99 1021.9
20210918123112 64 0 0.0 2.0 0.00 0.06 0.02 99 1021.9
20210918122546 64 0 0.0 2.0 0.00 0.06 0.02 99 1021.9
20210918122050 64 0 0.0 2.0 0.00 0.06 0.02 99 1022.0
20210918121637 64 51 0.0 2.0 0.00 0.06 0.02 99 1022.0
20210918121046 64 352 0.0 2.0 0.00 0.06 0.02 99 1022.0
20210918120546 64 45 0.0 1.0 0.00 0.06 0.02 99 1022.0
20210918120134 64 0 0.0 2.0 0.00 0.06 0.02 99 1021.9
20210918115551 64 0 0.0 2.0 0.00 0.06 0.02 99 1021.9
20210918115046 64 0 0.0 1.0 0.00 0.06 0.02 99 1021.9
20210918114636 64 0 0.0 1.0 0.00 0.06 0.02 99 1021.9
20210918114046 64 0 0.0 1.0 0.00 0.06 0.02 99 1021.9
20210918113547 64 0 0.0 1.0 0.00 0.06 0.02 99 1022.0
20210918113126 64 0 0.0 1.0 0.00 0.06 0.02 99 1022.1
20210918112607 64 0 0.0 1.0 0.00 0.06 0.02 99 1022.1
20210918112047 63 0 0.0 1.0 0.00 0.06 0.02 99 1022.1
20210918111750 63 0 0.0 1.0 0.00 0.06 0.02 99 1022.0
20210918111047 63 0 0.0 1.0 0.00 0.06 0.02 99 1022.3
20210918110546 63 0 0.0 1.0 0.00 0.06 0.02 99 1022.2
20210918110143 63 0 0.0 1.0 0.00 0.06 0.02 99 1022.2
20210918105547 63 0 0.0 1.0 0.00 0.07 0.02 99 1022.2
20210918105050 63 0 0.0 1.0 0.00 0.07 0.02 99 1022.2
20210918104632 63 105 0.0 1.0 0.00 0.07 0.02 99 1022.1
20210918104049 63 0 0.0 0.0 0.00 0.07 0.02 99 1022.1
20210918103618 62 0 0.0 0.0 0.00 0.07 0.02 99 1022.1
20210918103128 63 0 0.0 0.0 0.00 0.07 0.02 99 1022.1
20210918102547 62 0 0.0 1.0 0.01 0.07 0.02 99 1022.1
20210918102050 62 0 0.0 1.0 0.01 0.07 0.02 99 1022.1
20210918101626 63 0 0.0 1.0 0.01 0.07 0.02 99 1022.0
20210918101049 63 0 0.0 1.0 0.01 0.07 0.02 99 1022.0
20210918100606 63 0 0.0 1.0 0.01 0.07 0.02 99 1022.1
20210918100130 63 0 0.0 0.0 0.01 0.07 0.02 99 1022.0
20210918095548 63 0 0.0 1.0 0.01 0.07 0.02 99 1022.1
20210918095048 63 0 0.0 1.0 0.01 0.07 0.02 99 1022.0
20210918094652 63 0 0.0 1.0 0.01 0.07 0.02 99 1022.1
20210918094049 63 0 0.0 0.0 0.01 0.07 0.02 99 1022.1
20210918093548 63 0 0.0 1.0 0.01 0.07 0.02 99 1022.0
20210918093127 63 0 0.0 1.0 0.01 0.07 0.02 99 1021.9
20210918092653 63 0 0.0 1.0 0.00 0.06 0.01 99 1022.0
20210918092045 63 0 0.0 1.0 0.00 0.06 0.01 99 1021.9
20210918091731 63 0 0.0 1.0 0.00 0.06 0.01 99 1021.9
20210918091054 63 0 0.0 1.0 0.00 0.06 0.01 99 1022.0
20210918090550 63 0 0.0 2.0 0.00 0.06 0.01 99 1022.0
20210918090133 63 0 0.0 2.0 0.00 0.06 0.01 99 1022.0
20210918085545 63 0 0.0 1.0 0.00 0.06 0.01 99 1022.0
20210918085052 63 0 0.0 1.0 0.00 0.06 0.01 99 1021.9
20210918084630 63 0 0.0 1.0 0.00 0.06 0.01 99 1021.9
20210918084052 63 0 0.0 1.0 0.00 0.06 0.01 99 1021.9
20210918083548 63 0 0.0 1.0 0.00 0.06 0.01 99 1022.0
20210918083111 63 0 0.0 1.0 0.00 0.06 0.01 99 1022.1
20210918082552 63 192 0.0 1.0 0.00 0.06 0.01 99 1022.1
20210918082047 63 0 0.0 1.0 0.00 0.06 0.01 99 1022.2
20210918081812 63 0 0.0 1.0 0.00 0.06 0.01 99 1022.2
20210918081103 63 0 0.0 1.0 0.00 0.06 0.01 99 1022.1
20210918080547 63 0 0.0 1.0 0.00 0.06 0.01 99 1022.1
20210918080152 63 0 0.0 1.0 0.00 0.06 0.01 99 1022.0
20210918075547 63 0 0.0 1.0 0.00 0.07 0.01 99 1021.9
20210918075100 63 0 0.0 1.0 0.00 0.07 0.01 99 1022.0
20210918074616 63 0 0.0 1.0 0.00 0.07 0.01 99 1021.9
20210918074048 63 0 0.0 1.0 0.00 0.07 0.01 99 1021.9
20210918073548 63 0 0.0 1.0 0.00 0.07 0.01 99 1022.1
20210918073202 63 0 0.0 1.0 0.00 0.07 0.01 99 1022.2
20210918072547 63 0 0.0 1.0 0.00 0.07 0.01 99 1022.3
20210918072047 63 0 0.0 1.0 0.00 0.07 0.01 99 1022.2
20210918071627 63 0 0.0 1.0 0.00 0.07 0.01 99 1022.2
20210918071048 63 0 0.0 1.0 0.00 0.07 0.01 99 1022.2
20210918070548 63 0 0.0 1.0 0.00 0.07 0.01 99 1022.3
20210918070131 63 0 0.0 1.0 0.00 0.07 0.01 99 1022.3
20210918065552 63 0 0.0 1.0 0.00 0.07 0.01 99 1022.3
20210918065045 63 0 0.0 0.0 0.00 0.07 0.01 99 1022.3
20210918064608 63 0 0.0 0.0 0.00 0.07 0.01 99 1022.3
20210918064106 63 0 0.0 0.0 0.00 0.07 0.01 99 1022.4
20210918063546 63 0 0.0 1.0 0.00 0.07 0.01 99 1022.5
20210918063212 63 0 0.0 1.0 0.00 0.07 0.01 99 1022.5
20210918062547 63 0 0.0 0.0 0.00 0.07 0.01 99 1022.5
20210918062049 63 0 0.0 0.0 0.00 0.07 0.01 99 1022.4
20210918061613 63 0 0.0 0.0 0.00 0.07 0.01 99 1022.4
20210918061048 63 0 0.0 1.0 0.00 0.07 0.01 98 1022.5
20210918060606 63 0 0.0 1.0 0.00 0.07 0.01 98 1022.5
20210918060258 63 0 0.0 1.0 0.00 0.07 0.01 98 1022.4
20210918055548 63 0 0.0 0.0 0.00 0.07 0.01 98 1022.5
20210918055047 63 0 0.0 0.0 0.00 0.07 0.01 98 1022.5
20210918054645 63 0 0.0 0.0 0.00 0.07 0.01 98 1022.5
20210918054048 63 0 0.0 0.0 0.00 0.07 0.01 98 1022.5
20210918053548 63 0 0.0 0.0 0.00 0.07 0.01 98 1022.5
20210918053143 63 0 0.0 0.0 0.01 0.07 0.01 98 1022.5
20210918052551 63 0 0.0 1.0 0.01 0.07 0.01 98 1022.5
20210918052048 63 0 0.0 1.0 0.01 0.07 0.01 98 1022.5
20210918051606 63 0 0.0 1.0 0.01 0.07 0.01 98 1022.5
20210918051048 63 0 0.0 0.0 0.01 0.07 0.01 98 1022.5